• In Czech Republic
  • List of Countries
  • For 7 days
  • Water Temperature
  • Satellite Maps
  • Weather Map
  • Weather Widgets
  • user-avatar
    Login

    Hourly Weather Ixtenco

    Today, 18 July, Wednesday

    Time Temperature Precipitation Wind Pressure Humidity
    00:00 +10°C° 0 mm 2 mps 563 mmHg 82%
    01:00 +9°C° 0 mm 2 mps 563 mmHg 81%
    02:00 +10°C° 0 mm 1 mps 563 mmHg 80%
    03:00 +9°C° 0 mm 1 mps 562 mmHg 79%
    04:00 +9°C° 0 mm 1 mps 562 mmHg 78%
    05:00 +9°C° 0 mm 1 mps 562 mmHg 77%
    06:00 +11°C° 0 mm 1 mps 563 mmHg 68%
    07:00 +14°C° 0 mm 1 mps 565 mmHg 59%
    08:00 +16°C° 0 mm 1 mps 566 mmHg 51%
    09:00 +18°C° 0 mm 2 mps 567 mmHg 45%
    10:00 +20°C° 0 mm 2 mps 567 mmHg 39%
    11:00 +21°C° 0 mm 2 mps 568 mmHg 34%
    12:00 +22°C° 0 mm 3 mps 567 mmHg 35%
    13:00 +22°C° 0 mm 3 mps 567 mmHg 35%
    14:00 +22°C° 0 mm 4 mps 567 mmHg 36%
    15:00 +21°C° 0 mm 4 mps 566 mmHg 42%
    16:00 +20°C° 0 mm 3 mps 565 mmHg 48%
    17:00 +18°C° 0 mm 3 mps 564 mmHg 55%
    18:00 +16°C° 0 mm 3 mps 564 mmHg 63%
    19:00 +15°C° 0 mm 2 mps 563 mmHg 71%
    20:00 +13°C° 0 mm 2 mps 563 mmHg 80%
    21:00 +12°C° 0 mm 2 mps 563 mmHg 81%
    22:00 +12°C° 0 mm 2 mps 563 mmHg 83%
    23:00 +10°C° 0 mm 2 mps 563 mmHg 84%

    Tomorrow, 19 July, Thursday

    Time Temperature Precipitation Wind Pressure Humidity
    00:00 +10°C° 0 mm 2 mps 562 mmHg 83%
    01:00 +10°C° 0 mm 1 mps 562 mmHg 81%
    02:00 +10°C° 0 mm 1 mps 561 mmHg 80%
    03:00 +10°C° 0 mm 1 mps 561 mmHg 77%
    04:00 +9°C° 0 mm 1 mps 561 mmHg 75%
    05:00 +9°C° 0 mm 1 mps 561 mmHg 72%
    06:00 +12°C° 0 mm 1 mps 562 mmHg 62%
    07:00 +14°C° 0 mm 1 mps 564 mmHg 53%
    08:00 +16°C° 0 mm 0 mps 565 mmHg 43%
    09:00 +19°C° 0 mm 1 mps 566 mmHg 40%
    10:00 +21°C° 0 mm 1 mps 566 mmHg 36%
    11:00 +21°C° 0 mm 2 mps 567 mmHg 33%
    12:00 +23°C° 0 mm 2 mps 567 mmHg 35%
    13:00 +22°C° 0 mm 3 mps 566 mmHg 37%
    14:00 +22°C° 0 mm 3 mps 566 mmHg 39%
    15:00 +21°C° 0.3 mm 3 mps 565 mmHg 47%
    16:00 +20°C° 0.3 mm 3 mps 564 mmHg 55%
    17:00 +18°C° 0.3 mm 3 mps 563 mmHg 63%
    18:00 +17°C° 0.8 mm 3 mps 563 mmHg 70%
    19:00 +15°C° 0.8 mm 2 mps 563 mmHg 77%
    20:00 +14°C° 0.8 mm 1 mps 563 mmHg 84%
    21:00 +13°C° 0.3 mm 1 mps 563 mmHg 84%
    22:00 +13°C° 0.3 mm 1 mps 563 mmHg 85%
    23:00 +12°C° 0.3 mm 1 mps 563 mmHg 85%

    Day after tomorrow, 20 July, Friday

    Time Temperature Precipitation Wind Pressure Humidity
    00:00 +12°C° 0 mm 1 mps 562 mmHg 86%
    01:00 +12°C° 0 mm 1 mps 562 mmHg 86%
    02:00 +11°C° 0 mm 1 mps 562 mmHg 87%
    03:00 +11°C° 0 mm 1 mps 561 mmHg 88%
    04:00 +11°C° 0 mm 1 mps 561 mmHg 90%
    05:00 +10°C° 0 mm 1 mps 561 mmHg 91%
    06:00 +12°C° 0 mm 1 mps 563 mmHg 84%
    07:00 +14°C° 0 mm 1 mps 564 mmHg 77%
    08:00 +16°C° 0 mm 1 mps 565 mmHg 69%
    09:00 +19°C° 0.1 mm 1 mps 566 mmHg 63%
    10:00 +19°C° 0.1 mm 2 mps 566 mmHg 57%
    11:00 +21°C° 0.1 mm 3 mps 567 mmHg 51%
    12:00 +21°C° 0.7 mm 3 mps 566 mmHg 52%
    13:00 +20°C° 0.7 mm 3 mps 566 mmHg 54%
    14:00 +20°C° 0.7 mm 3 mps 565 mmHg 55%
    15:00 +20°C° 0.6 mm 3 mps 565 mmHg 57%
    16:00 +19°C° 0.6 mm 3 mps 565 mmHg 60%
    17:00 +19°C° 0.6 mm 2 mps 564 mmHg 63%
    18:00 +17°C° 0.1 mm 2 mps 564 mmHg 70%
    19:00 +15°C° 0.1 mm 2 mps 564 mmHg 77%
    20:00 +13°C° 0.1 mm 1 mps 563 mmHg 84%
    21:00 +13°C° 0 mm 1 mps 563 mmHg 84%
    22:00 +12°C° 0 mm 2 mps 563 mmHg 84%
    23:00 +12°C° 0 mm 2 mps 563 mmHg 83%

    21 July, Saturday

    Time Temperature Precipitation Wind Pressure Humidity
    00:00 +10°C° 0 mm 2 mps 563 mmHg 81%
    01:00 +10°C° 0 mm 2 mps 562 mmHg 79%
    02:00 +10°C° 0 mm 1 mps 562 mmHg 78%
    03:00 +10°C° 0 mm 1 mps 561 mmHg 75%
    04:00 +9°C° 0 mm 1 mps 561 mmHg 72%
    05:00 +9°C° 0 mm 1 mps 561 mmHg 69%
    06:00 +12°C° 0 mm 2 mps 563 mmHg 59%
    07:00 +14°C° 0 mm 2 mps 564 mmHg 50%
    08:00 +17°C° 0 mm 2 mps 566 mmHg 40%
    09:00 +19°C° 0 mm 2 mps 566 mmHg 37%
    10:00 +20°C° 0 mm 3 mps 567 mmHg 33%
    11:00 +22°C° 0 mm 3 mps 567 mmHg 29%
    12:00 +22°C° 0 mm 3 mps 567 mmHg 31%
    13:00 +22°C° 0 mm 4 mps 567 mmHg 32%
    14:00 +23°C° 0 mm 4 mps 566 mmHg 34%
    15:00 +21°C° 0 mm 4 mps 566 mmHg 41%
    16:00 +20°C° 0 mm 5 mps 565 mmHg 48%
    17:00 +19°C° 0 mm 5 mps 565 mmHg 55%
    18:00 +17°C° 0 mm 4 mps 564 mmHg 64%
    19:00 +14°C° 0 mm 4 mps 564 mmHg 74%
    20:00 +12°C° 0 mm 3 mps 564 mmHg 83%
    21:00 +11°C° 0 mm 3 mps 564 mmHg 85%
    22:00 +11°C° 0 mm 3 mps 564 mmHg 86%
    23:00 +10°C° 0 mm 2 mps 563 mmHg 87%

    22 July, Sunday

    Time Temperature Precipitation Wind Pressure Humidity
    00:00 +10°C° 0 mm 2 mps 563 mmHg 86%
    01:00 +9°C° 0 mm 2 mps 562 mmHg 85%
    02:00 +9°C° 0 mm 2 mps 562 mmHg 84%
    03:00 +9°C° 0 mm 2 mps 562 mmHg 81%
    04:00 +9°C° 0 mm 2 mps 562 mmHg 78%
    05:00 +9°C° 0 mm 2 mps 562 mmHg 75%
    06:00 +12°C° 0 mm 2 mps 563 mmHg 67%
    07:00 +14°C° 0 mm 2 mps 565 mmHg 60%
    08:00 +16°C° 0 mm 2 mps 566 mmHg 52%
    09:00 +18°C° 0 mm 3 mps 566 mmHg 49%
    10:00 +20°C° 0 mm 4 mps 567 mmHg 47%
    11:00 +21°C° 0 mm 4 mps 567 mmHg 44%
    12:00 +22°C° 0 mm 4 mps 567 mmHg 43%
    13:00 +22°C° 0 mm 4 mps 567 mmHg 43%
    14:00 +22°C° 0 mm 4 mps 566 mmHg 42%
    15:00 +21°C° 0 mm 4 mps 566 mmHg 45%
    16:00 +20°C° 0 mm 4 mps 565 mmHg 49%
    17:00 +19°C° 0 mm 4 mps 565 mmHg 52%
    18:00 +17°C° 0 mm 3 mps 564 mmHg 60%
    19:00 +14°C° 0 mm 3 mps 564 mmHg 68%
    20:00 +13°C° 0 mm 2 mps 563 mmHg 77%
    21:00 +12°C° 0 mm 2 mps 563 mmHg 78%
    22:00 +12°C° 0 mm 2 mps 563 mmHg 79%
    23:00 +10°C° 0 mm 2 mps 563 mmHg 81%

    23 July, Monday

    Time Temperature Precipitation Wind Pressure Humidity
    00:00 +10°C° 0 mm 2 mps 562 mmHg 79%
    01:00 +9°C° 0 mm 2 mps 562 mmHg 76%
    02:00 +9°C° 0 mm 2 mps 561 mmHg 74%
    03:00 +9°C° 0 mm 2 mps 561 mmHg 72%
    04:00 +8°C° 0 mm 2 mps 561 mmHg 70%
    05:00 +8°C° 0 mm 2 mps 562 mmHg 68%
    06:00 +12°C° 0 mm 2 mps 563 mmHg 61%
    07:00 +15°C° 0 mm 2 mps 565 mmHg 55%
    08:00 +17°C° 0 mm 2 mps 566 mmHg 48%
    09:00 +19°C° 0 mm 2 mps 567 mmHg 44%
    10:00 +21°C° 0 mm 3 mps 567 mmHg 39%
    11:00 +22°C° 0 mm 3 mps 567 mmHg 35%
    12:00 +22°C° 0 mm 3 mps 567 mmHg 34%
    13:00 +24°C° 0 mm 3 mps 567 mmHg 34%
    14:00 +24°C° 0 mm 3 mps 566 mmHg 33%
    15:00 +22°C° 0 mm 3 mps 566 mmHg 37%
    16:00 +21°C° 0 mm 3 mps 565 mmHg 40%
    17:00 +20°C° 0 mm 3 mps 565 mmHg 43%
    18:00 +18°C° 0 mm 3 mps 564 mmHg 50%
    19:00 +15°C° 0 mm 2 mps 564 mmHg 56%
    20:00 +13°C° 0 mm 2 mps 563 mmHg 63%
    21:00 +12°C° 0 mm 2 mps 563 mmHg 64%
    22:00 +12°C° 0 mm 2 mps 563 mmHg 65%
    23:00 +10°C° 0 mm 2 mps 562 mmHg 66%
    Show more